CZ-3C DEB, 40822

Orbit data source: Space-Track

CZ-3C DEB, 40822 is space debris in HEO originally from a launch on Sun, 31 Oct 2010 UTC launched from the Xichang Space Center, China (XSC). Debris objects in space refer to the collection of defunct objects orbiting the Earth. Examples of debris include non-operational satellites, rocket bodies, and fragments generated from explosions, collisions, or faulty payload assembly.

Loading next visibility...
Identifier
40822, 2010-057AP
Orbit
HEO
Country
Flag of CNCN / PRC
Related business
Manufacturer
CALT
Mission
Spacecraft
Bus & Motor
Unknown
Mass
Unknown
Launch date (UTC)
2010-10-31 (16 years ago)
Launch vehicle
Unknown
Launch site
Xichang Space Center, China (XSC)
Object type
Payload
Rocket body
Debris
Shape & HBR
Unknown shape, 0.1 m
Radar Cross Section
Medium (>0.1 m² and <1 m²)

Expand to show TLE details & history
Last TLE update: 4 months ago

TLE from 4 months ago
0 CZ-3C DEB
1 40822U 10057AP  26144.17883502 -.00000083  00000-0  69671-3 0  9994
2 40822  20.9835  64.4325 7217255 203.8666  90.4173  2.22627768    16
Epoch: 2026-05-24T04:17Z
TLE epoch observation values (Epoch: 2026-05-24T04:17:31.345Z)
Latitude
0.00006°
Longitude
118.25027°
Altitude
28,559.529 km
Speed
2.594 km/s
True Right ascension
04h 17m 39s
True Declination
0° 00' 00"
Sunlit
Object was in daylight at epoch
Visualization orbit readout
Latitude
Unknown
Longitude
Unknown
Altitude
Unknown
Speed
Unknown
Apparent Right ascension
Unknown
Apparent Declination
Unknown
Sunlit
N/A
Visualization observer readout
Local Sidereal Time
08:59:34
Azimuth
Unknown
Elevation
Unknown
Doppler factor
Unknown
Orbital elements
Apogee altitude
36,285.285 km
Perigee altitude
517.354 km
Semi-major axis
24,779.457 km
Eccentricity
0.72173
Inclination
20.9835°
RAAN
64.4325°
Arg. of periapsis
203.8666°
True anomaly
156.11282°
Mean anomaly
90.4173°
Eccentric anomaly
124.49746°
Mean motion
0.55642 °/min
Orbital period
646.99 mins
BSTAR
0.00069671
Loading maneuver chart data...
Computing Atmospheric mass density...
Loading historical data...
Loading historical data...
Loading historical data...
Loading historical data...
Loading historical data...
Loading historical data...
Loading historical data...

Documentation

Showing up to 5 results
|